sat.trackr.live / text

‹ back to catalog

NINGXIA-1 1

NORAD 44779 · 2019-076A

PAYLOAD ACTIVE UNKNOWN

§ Identity

Operator
Country
PRC
Launch date
2019-11-13
Launch site
TAISC
Launch vehicle
Mass (kg)
RCS (m²)

External: N2YO · Heavens-Above · Gunter

§ Orbital elements

Epoch: 2026-05-25T03:57:59.501664Z

Period
102.71 min
Inclination
45.0062°
Eccentricity
0.0010418
Mean motion
14.02036262 rev/d
Perigee alt
879.2 km
Apogee alt
894.3 km
Semi-major
7,264.9 km
B*
2.5209e-5
RAAN
282.7325°
Arg perigee
47.3082°
Mean anomaly
312.8628°
Rev number
33,462

§ Raw data

NINGXIA-1 11 44779U 19076A   26145.16527201 -.00000091  00000+0  25209-4 0  99982 44779  45.0062 282.7325 0010418  47.3082 312.8628 14.02036262334621

JSON: /api/v1/satellites/44779 · /tle

For live sub-satellite position, see the globe view (requires WebGL).

§ Visibility from observer

Set your observer location to see the next 7 days of passes ≥ 10°. The values pass through the URL so the page stays shareable.

No JS? Fill the form by hand. The geolocation button needs JavaScript.

§ Radio — SatNOGS DB

ModeDescriptionDownlinkUplink
FM Mode S possible 2.271 GHz
BPSK S-band telemetry 2.203 GHz

2 transmitters · refreshed weekly from db.satnogs.org